Time,TemperatureF,DewpointF,PressureIn,WindDirection,WindDirectionDegrees,WindSpeedMPH,WindSpeedGustMPH,Humidity,HourlyPrecipIn,Conditions,Clouds,dailyrainin,SolarRadiationWatts/m^2,SoftwareType,DateUTC
2013-01-30 00:01:00,44.0,35.0,-100.00,West,274,9.0,15.0,70,0.00,,,0.00,0.000000,,2013-01-30 08:01:00,
2013-01-30 00:11:00,44.0,35.0,-100.00,West,274,9.0,15.0,70,0.00,,,0.00,0.000000,,2013-01-30 08:11:00,
2013-01-30 00:21:00,44.0,35.0,-100.00,West,274,9.0,15.0,70,0.00,,,0.00,0.000000,,2013-01-30 08:21:00,
2013-01-30 00:52:00,44.0,36.0,-100.00,West,263,11.0,16.0,73,0.00,,,0.00,0.000000,,2013-01-30 08:52:00,
2013-01-30 01:01:00,44.0,36.0,-100.00,West,263,11.0,16.0,73,0.00,,,0.00,0.000000,,2013-01-30 09:01:00,
2013-01-30 01:11:00,44.0,36.0,-100.00,West,263,11.0,16.0,73,0.00,,,0.00,0.000000,,2013-01-30 09:11:00,
2013-01-30 01:21:00,44.0,36.0,-100.00,West,263,11.0,16.0,73,0.00,,,0.00,0.000000,,2013-01-30 09:21:00,
2013-01-30 02:52:00,46.0,35.0,-100.00,West,272,17.0,22.0,64,-99.99,,,0.00,0.000000,,2013-01-30 10:52:00,
2013-01-30 03:02:00,46.0,35.0,-100.00,West,272,17.0,22.0,64,-99.99,,,0.00,0.000000,,2013-01-30 11:02:00,
2013-01-30 03:52:00,43.0,34.0,-100.00,WSW,253,9.0,20.0,69,-99.99,,,0.00,0.000000,,2013-01-30 11:52:00,
2013-01-30 04:02:00,43.0,34.0,-100.00,WSW,253,9.0,20.0,69,-99.99,,,0.00,0.000000,,2013-01-30 12:02:00,
2013-01-30 04:12:00,43.0,34.0,-100.00,WSW,253,9.0,20.0,69,-99.99,,,0.00,0.000000,,2013-01-30 12:12:00,
2013-01-30 04:21:00,43.0,34.0,-100.00,WSW,253,9.0,20.0,69,-99.99,,,0.00,0.000000,,2013-01-30 12:21:00,
2013-01-30 05:02:00,42.0,34.0,-100.00,WSW,252,5.0,11.0,74,0.00,,,0.00,0.000000,,2013-01-30 13:02:00,
2013-01-30 05:12:00,42.0,34.0,-100.00,WSW,252,5.0,11.0,74,0.00,,,0.00,0.000000,,2013-01-30 13:12:00,
2013-01-30 05:22:00,42.0,34.0,-100.00,WSW,252,5.0,11.0,74,0.00,,,0.00,0.000000,,2013-01-30 13:22:00,
2013-01-30 05:53:00,43.0,34.0,-100.00,West,267,7.0,12.0,71,0.00,,,0.00,0.000000,,2013-01-30 13:53:00,
2013-01-30 06:02:00,43.0,34.0,-100.00,West,267,7.0,12.0,71,0.00,,,0.00,0.000000,,2013-01-30 14:02:00,
2013-01-30 06:11:00,43.0,34.0,-100.00,West,267,7.0,12.0,71,0.00,,,0.00,0.000000,,2013-01-30 14:11:00,
2013-01-30 06:22:00,43.0,34.0,-100.00,West,267,7.0,12.0,71,0.00,,,0.00,0.000000,,2013-01-30 14:22:00,
2013-01-30 06:53:00,38.0,34.0,-100.00,SSW,210,4.0,8.0,85,0.00,,,0.00,0.000000,,2013-01-30 14:53:00,
2013-01-30 07:03:00,38.0,34.0,-100.00,SSW,210,4.0,8.0,85,0.00,,,0.00,0.000000,,2013-01-30 15:03:00,
2013-01-30 07:12:00,38.0,34.0,-100.00,SSW,210,4.0,8.0,85,0.00,,,0.00,0.000000,,2013-01-30 15:12:00,
2013-01-30 07:22:00,38.0,34.0,-100.00,SSW,210,4.0,8.0,85,0.00,,,0.00,0.000000,,2013-01-30 15:22:00,
2013-01-30 07:53:00,36.0,34.0,-100.00,NE,39,4.0,9.0,94,0.00,,,0.00,2.000000,,2013-01-30 15:53:00,
2013-01-30 08:03:00,36.0,34.0,-100.00,NE,39,4.0,9.0,94,0.00,,,0.00,2.000000,,2013-01-30 16:03:00,
2013-01-30 08:12:00,36.0,34.0,-100.00,NE,39,4.0,9.0,94,0.00,,,0.00,2.000000,,2013-01-30 16:12:00,
2013-01-30 08:22:00,36.0,34.0,-100.00,NE,39,4.0,9.0,94,0.00,,,0.00,2.000000,,2013-01-30 16:22:00,
2013-01-30 08:52:00,38.0,36.0,-100.00,NNE,30,2.0,7.0,92,0.00,,,0.00,53.000000,,2013-01-30 16:52:00,
2013-01-30 09:02:00,38.0,36.0,-100.00,NNE,30,2.0,7.0,92,0.00,,,0.00,53.000000,,2013-01-30 17:02:00,
2013-01-30 09:12:00,38.0,36.0,-100.00,NNE,30,2.0,7.0,92,0.00,,,0.00,53.000000,,2013-01-30 17:12:00,
2013-01-30 09:22:00,38.0,36.0,-100.00,NNE,30,2.0,7.0,92,0.00,,,0.00,53.000000,,2013-01-30 17:22:00,
2013-01-30 09:53:00,43.0,39.0,-100.00,NNE,28,5.0,9.0,85,0.00,,,0.00,171.000000,,2013-01-30 17:53:00,
2013-01-30 10:02:00,43.0,39.0,-100.00,NNE,28,5.0,9.0,85,0.00,,,0.00,171.000000,,2013-01-30 18:02:00,
2013-01-30 10:12:00,43.0,39.0,-100.00,NNE,28,5.0,9.0,85,0.00,,,0.00,171.000000,,2013-01-30 18:12:00,
2013-01-30 10:22:00,43.0,39.0,-100.00,NNE,28,5.0,9.0,85,0.00,,,0.00,171.000000,,2013-01-30 18:22:00,
2013-01-30 10:53:00,51.0,41.0,-100.00,ESE,120,2.0,5.0,68,0.00,,,0.00,304.000000,,2013-01-30 18:53:00,
2013-01-30 11:02:00,51.0,41.0,-100.00,ESE,120,2.0,5.0,68,0.00,,,0.00,304.000000,,2013-01-30 19:02:00,
2013-01-30 11:12:00,51.0,41.0,-100.00,ESE,120,2.0,5.0,68,0.00,,,0.00,304.000000,,2013-01-30 19:12:00,
2013-01-30 11:21:00,51.0,41.0,-100.00,ESE,120,2.0,5.0,68,0.00,,,0.00,304.000000,,2013-01-30 19:21:00,
2013-01-30 11:53:00,55.0,38.0,-100.00,South,187,9.0,14.0,53,0.00,,,0.00,402.000000,,2013-01-30 19:53:00,
2013-01-30 12:03:00,55.0,38.0,-100.00,South,187,9.0,14.0,53,0.00,,,0.00,402.000000,,2013-01-30 20:03:00,
2013-01-30 12:11:00,55.0,38.0,-100.00,South,187,9.0,14.0,53,0.00,,,0.00,402.000000,,2013-01-30 20:11:00,
2013-01-30 12:21:00,55.0,38.0,-100.00,South,187,9.0,14.0,53,0.00,,,0.00,402.000000,,2013-01-30 20:21:00,
2013-01-30 12:53:00,58.0,37.0,-100.00,WSW,256,11.0,15.0,46,0.00,,,0.00,447.000000,,2013-01-30 20:53:00,
2013-01-30 13:03:00,58.0,37.0,-100.00,WSW,256,11.0,15.0,46,0.00,,,0.00,447.000000,,2013-01-30 21:03:00,
2013-01-30 13:11:00,58.0,37.0,-100.00,WSW,256,11.0,15.0,46,0.00,,,0.00,447.000000,,2013-01-30 21:11:00,
2013-01-30 13:22:00,58.0,37.0,-100.00,WSW,256,11.0,15.0,46,0.00,,,0.00,447.000000,,2013-01-30 21:22:00,
2013-01-30 13:52:00,58.0,37.0,-100.00,SW,233,11.0,15.0,46,0.00,,,0.00,434.000000,,2013-01-30 21:52:00,
2013-01-30 14:02:00,58.0,37.0,-100.00,SW,233,11.0,15.0,46,0.00,,,0.00,434.000000,,2013-01-30 22:02:00,
2013-01-30 14:11:00,58.0,37.0,-100.00,SW,233,11.0,15.0,46,0.00,,,0.00,434.000000,,2013-01-30 22:11:00,
2013-01-30 14:22:00,58.0,37.0,-100.00,SW,233,11.0,15.0,46,0.00,,,0.00,434.000000,,2013-01-30 22:22:00,
2013-01-30 14:53:00,57.0,36.0,-100.00,West,266,9.0,14.0,46,0.00,,,0.00,346.000000,,2013-01-30 22:53:00,
2013-01-30 15:02:00,57.0,36.0,-100.00,West,266,9.0,14.0,46,0.00,,,0.00,346.000000,,2013-01-30 23:02:00,
2013-01-30 15:11:00,57.0,36.0,-100.00,West,266,9.0,14.0,46,0.00,,,0.00,346.000000,,2013-01-30 23:11:00,
2013-01-30 15:22:00,57.0,36.0,-100.00,West,266,9.0,14.0,46,0.00,,,0.00,346.000000,,2013-01-30 23:22:00,
2013-01-30 15:52:00,55.0,37.0,-100.00,WSW,251,8.0,15.0,50,0.00,,,0.00,171.000000,,2013-01-30 23:52:00,
2013-01-30 16:02:00,55.0,37.0,-100.00,WSW,251,8.0,15.0,50,0.00,,,0.00,171.000000,,2013-01-31 00:02:00,
2013-01-30 16:11:00,55.0,37.0,-100.00,WSW,251,8.0,15.0,50,0.00,,,0.00,171.000000,,2013-01-31 00:11:00,
2013-01-30 16:21:00,55.0,37.0,-100.00,WSW,251,8.0,15.0,50,0.00,,,0.00,171.000000,,2013-01-31 00:21:00,
2013-01-30 16:53:00,51.0,36.0,-100.00,West,261,10.0,17.0,56,0.00,,,0.00,125.000000,,2013-01-31 00:53:00,
2013-01-30 17:02:00,51.0,36.0,-100.00,West,261,10.0,17.0,56,0.00,,,0.00,125.000000,,2013-01-31 01:02:00,
2013-01-30 17:11:00,51.0,36.0,-100.00,West,261,10.0,17.0,56,0.00,,,0.00,125.000000,,2013-01-31 01:11:00,
2013-01-30 17:21:00,51.0,36.0,-100.00,West,261,10.0,17.0,56,0.00,,,0.00,125.000000,,2013-01-31 01:21:00,
2013-01-30 17:52:00,45.0,35.0,-100.00,NW,306,10.0,13.0,69,0.00,,,0.00,7.000000,,2013-01-31 01:52:00,
2013-01-30 18:01:00,45.0,35.0,-100.00,NW,306,10.0,13.0,69,0.00,,,0.00,7.000000,,2013-01-31 02:01:00,
2013-01-30 18:11:00,45.0,35.0,-100.00,NW,306,10.0,13.0,69,0.00,,,0.00,7.000000,,2013-01-31 02:11:00,
2013-01-30 18:21:00,45.0,35.0,-100.00,NW,306,10.0,13.0,69,0.00,,,0.00,7.000000,,2013-01-31 02:21:00,
2013-01-30 19:02:00,44.0,37.0,-100.00,NW,306,8.0,12.0,75,0.00,,,0.00,0.000000,,2013-01-31 03:02:00,
2013-01-30 19:11:00,44.0,37.0,-100.00,NW,306,8.0,12.0,75,0.00,,,0.00,0.000000,,2013-01-31 03:11:00,
2013-01-30 19:21:00,44.0,37.0,-100.00,NW,306,8.0,12.0,75,0.00,,,0.00,0.000000,,2013-01-31 03:21:00,
2013-01-30 19:52:00,42.0,36.0,-100.00,WNW,298,12.0,15.0,79,0.00,,,0.00,0.000000,,2013-01-31 03:52:00,
2013-01-30 20:02:00,42.0,36.0,-100.00,WNW,298,12.0,15.0,79,0.00,,,0.00,0.000000,,2013-01-31 04:02:00,
2013-01-30 20:11:00,42.0,36.0,-100.00,WNW,298,12.0,15.0,79,0.00,,,0.00,0.000000,,2013-01-31 04:11:00,
2013-01-30 20:22:00,42.0,36.0,-100.00,WNW,298,12.0,15.0,79,0.00,,,0.00,0.000000,,2013-01-31 04:22:00,
2013-01-30 20:52:00,42.0,36.0,-100.00,WNW,301,12.0,16.0,79,0.00,,,0.00,0.000000,,2013-01-31 04:52:00,
2013-01-30 21:03:00,42.0,36.0,-100.00,WNW,301,12.0,16.0,79,0.00,,,0.00,0.000000,,2013-01-31 05:03:00,
2013-01-30 21:11:00,42.0,36.0,-100.00,WNW,301,12.0,16.0,79,0.00,,,0.00,0.000000,,2013-01-31 05:11:00,
2013-01-30 21:21:00,42.0,36.0,-100.00,WNW,301,12.0,16.0,79,0.00,,,0.00,0.000000,,2013-01-31 05:21:00,